Regional Weather Roundup
Issued by NWS

Home | Current Version | Previous Version | Text Only | Print | Product List | Glossary On
Versions: 1 2 3 4 5 6 7 8 9 10 11 12 13 14 15 16 17 18 19 20 21 22 23 24 25 26 27 28 29 30 31 32 33 34 35 36 37 38 39 40 41 42 43 44 45 46 47 48 49 50
000
ASUS44 KMEG 181810
RWRTN
TENNESSEE HOURLY STATE WEATHER ROUNDUP
NATIONAL WEATHER SERVICE MEMPHIS TN
100 PM CDT THU SEP 18 2014

TNZ002-004-019-021-049-052-054-088>092-181900-
WEST TENNESSEE

CITY           SKY/WX    TMP DP  RH WIND       PRES   REMARKS
MEMPHIS INTL   CLOUDY    82  67  60 CALM      29.96S
NWS MEMPHIS      N/A     78 N/A N/A MISG        N/A
JACKSON        TSTM      67  63  87 E6        30.02R FOG
DYERSBURG      CLOUDY    66  55  68 N6        30.04R
UNION CITY     PTSUNNY   72  61  68 NE6       30.01F
PARIS          MOSUNNY   70  57  64 E6        30.03S
LEXINGTON      CLOUDY    70  63  78 CALM      30.01S
SAVANNAH       PTSUNNY   77  68  73 NE6       30.00S
$$

TNZ008-025-027-028-033-062-065-066-181900-
NORTH MIDDLE TENNESSEE

CITY           SKY/WX    TMP DP  RH WIND       PRES   REMARKS
NASHVILLE      CLOUDY    75  56  51 NE8       30.03S
DICKSON        CLOUDY    72  55  56 E3        30.03R
PORTLAND       MOSUNNY   73  57  56 NE7       30.02
CLARKSVILLE    CLOUDY    75  56  51 NE9       30.02F
LEBANON        CLOUDY    75  53  46 NE6       30.02R
SMYRNA         PTSUNNY   76  56  49 NE7       30.03S
MURFREESBORO     N/A     76  57  51 NW5       30.01F
COOKEVILLE     SUNNY     77  57  50 NW3       30.02F
LIVINGSTON     MOSUNNY   71  57  61 VRB5      30.04
GALLATIN       CLOUDY    75  59  57 NE3       30.04S
CROSSVILLE     MOSUNNY   74  52  46 VRB6      30.05F
$$

TNZ061-075-076-078-094-096-097-181900-
SOUTH MIDDLE TENNESSEE

CITY           SKY/WX    TMP DP  RH WIND       PRES   REMARKS
LEWISBURG      CLOUDY    77  58  51 NE3       30.01S
FAYETTEVILLE   MOSUNNY   75  55  50 VRB3      30.01S
TULLAHOMA      MOSUNNY   77  52  41 CALM      30.03S
WINCHESTER     SUNNY     81  54  39 SW6       30.01F
MCMINNVILLE    SUNNY     77  54  44 CALM      30.02S
COLUMBIA       PTSUNNY   75  61  60 SE5       30.01S
SHELBYVILLE    MOSUNNY   81  54  39 VRB5      30.02F
$$

TNZ017-018-042-046-047-181900-
NORTHEAST TENNESSEE

CITY           SKY/WX    TMP DP  RH WIND       PRES   REMARKS
TRI CITIES     MOSUNNY   72  53  51 CALM      30.05F
ELIZABETHTON   PTCLDY    73  54  49 VRB3      30.04F
$$

TNZ012-013-036-069-073-074-181900-
CENTRAL EAST TENNESSEE

CITY           SKY/WX    TMP DP  RH WIND       PRES   REMARKS
KNOXVILLE      PTSUNNY   78  52  40 N6        30.00F
OAK RIDGE      MOSUNNY   76  53  44 CALM      30.04S
GATLINBURG     CLEAR     77  55  47 CALM      30.01S
MORRISTOWN     CLEAR     73  55  53 N6        30.04F
$$

TNZ083-085-099-181900-
SOUTHEAST TENNESSEE

CITY           SKY/WX    TMP DP  RH WIND       PRES   REMARKS
CHATTANOOGA    PTSUNNY   80  54  40 NW6       30.00F
$$

SKY/WX REPORTED AS FAIR MEANS FEW OR NO CLOUDS BELOW
12 THOUSAND FEET.




USA.gov is the U.S. government's official web portal to all federal, state and local government web resources and services.